DW8266 Weather Reports


Display with metric or nautical units.
time (UTC)temp
F
wind
direction
speed
MPH
gust
MPH
rain 1hr
in
rain 24hr
in
rain mn
in
humidity
%
barometer
mb
20180223175637 77 153 2.0 6.0 0.00 0.00 0.00 86 1019.1
20180223175559 77 153 1.0 6.0 0.00 0.00 0.00 85 1020.3
20180223174636 76 140 2.0 7.0 0.00 0.00 0.00 87 1019.2
20180223174047 75 141 2.0 6.0 0.00 0.00 0.00 89 1020.6
20180223173616 75 121 2.0 7.0 0.00 0.00 0.00 90 1019.4
20180223172615 73 126 2.0 8.0 0.00 0.00 0.00 93 1019.5
20180223172551 72 128 2.0 8.0 0.00 0.00 0.00 93 1020.8
20180223171555 71 119 1.0 5.0 0.00 0.00 0.00 94 1019.6
20180223171022 70 130 0.0 4.0 0.00 0.00 0.00 94 1021.0
20180223170551 69 132 1.0 4.0 0.00 0.00 0.00 94 1019.9
20180223165554 69 161 0.0 2.0 0.00 0.00 0.00 94 1020.1
20180223165528 68 161 0.0 2.0 0.00 0.00 0.00 94 1021.3
20180223164529 68 161 0.0 1.0 0.00 0.00 0.00 94 1020.2
20180223163957 68 161 0.0 4.0 0.00 0.00 0.00 94 1021.6
20180223163530 68 161 0.0 4.0 0.00 0.00 0.00 94 1020.2
20180223162530 68 209 0.0 2.0 0.00 0.00 0.00 94 1020.2
20180223162445 67 209 0.0 2.0 0.00 0.00 0.00 94 1021.5
20180223161528 67 318 0.0 0.0 0.00 0.00 0.00 94 1020.3
20180223160955 66 318 0.0 0.0 0.00 0.00 0.00 94 1021.6
20180223160526 66 318 0.0 0.0 0.00 0.00 0.00 94 1020.3
20180223155526 66 317 0.0 0.0 0.00 0.00 0.00 94 1020.3
20180223155501 66 317 0.0 0.0 0.00 0.00 0.00 94 1021.6
20180223154504 65 317 0.0 0.0 0.00 0.00 0.00 94 1020.5
20180223153947 64 318 0.0 0.0 0.00 0.00 0.00 94 1021.8
20180223153504 64 318 0.0 0.0 0.00 0.00 0.00 94 1020.6
20180223152459 64 318 0.0 0.0 0.00 0.00 0.00 94 1020.6
20180223152430 63 318 0.0 0.0 0.00 0.00 0.00 94 1021.9
20180223151457 63 317 0.0 0.0 0.00 0.00 0.00 94 1020.7
20180223150921 62 317 0.0 0.0 0.00 0.00 0.00 94 1022.0
20180223150456 62 317 0.0 0.0 0.00 0.00 0.00 94 1020.8
20180223145456 61 317 0.0 0.0 0.00 0.00 0.00 94 1020.9
20180223145403 61 317 0.0 0.0 0.00 0.00 0.00 94 1022.1
20180223144454 60 317 0.0 0.0 0.00 0.00 0.00 94 1020.9
20180223143854 60 317 0.0 0.0 0.00 0.00 0.00 95 1022.0
20180223143436 60 318 0.0 0.0 0.00 0.00 0.00 95 1020.8
20180223142437 60 318 0.0 0.0 0.00 0.00 0.00 95 1020.8
20180223142342 59 317 0.0 0.0 0.00 0.00 0.00 95 1022.0
20180223141436 59 317 0.0 0.0 0.00 0.00 0.00 95 1020.8
20180223140822 58 317 0.0 0.0 0.00 0.00 0.00 95 1022.1
20180223140432 59 318 0.0 0.0 0.00 0.00 0.00 94 1020.7
20180223135415 58 317 0.0 0.0 0.00 0.00 0.00 94 1020.7
20180223135327 57 317 0.0 0.0 0.00 0.00 0.00 94 1021.9
20180223134411 57 318 0.0 0.0 0.00 0.00 0.00 94 1020.7
20180223133732 57 317 0.0 0.0 0.00 0.00 0.00 94 1021.9
20180223133349 57 317 0.0 0.0 0.00 0.00 0.00 95 1020.6
20180223132336 57 317 0.0 0.0 0.00 0.00 0.00 94 1020.3
20180223132252 56 317 0.0 0.0 0.00 0.00 0.00 94 1021.6
20180223131333 56 317 0.0 0.0 0.00 0.00 0.00 94 1020.2
20180223130650 56 318 0.0 0.0 0.00 0.00 0.00 94 1021.2
20180223130312 56 317 0.0 0.0 0.00 0.00 0.00 94 1019.9
20180223125308 56 317 0.0 0.0 0.00 0.00 0.00 94 1020.0
20180223125243 55 317 0.0 0.0 0.00 0.00 0.00 94 1021.3
20180223124309 56 317 0.0 0.0 0.00 0.00 0.00 95 1019.8
20180223123713 55 317 0.0 0.0 0.00 0.00 0.00 94 1021.1
20180223123309 55 317 0.0 0.0 0.00 0.00 0.00 94 1019.7
20180223122239 55 317 0.0 0.0 0.00 0.00 0.00 94 1019.7
20180223122202 55 317 0.0 0.0 0.00 0.00 0.00 94 1021.1
20180223121239 55 317 0.0 0.0 0.00 0.00 0.00 94 1019.5
20180223120654 54 317 0.0 0.0 0.00 0.00 0.00 94 1020.8
20180223120235 55 317 0.0 0.0 0.00 0.00 0.00 94 1019.5
20180223115235 54 317 0.0 3.0 0.00 0.00 0.00 94 1019.6
20180223115049 54 317 0.0 3.0 0.00 0.01 0.00 94 1020.8
20180223114232 54 303 0.0 1.0 0.00 0.00 0.00 94 1019.4
20180223113624 54 303 0.0 0.0 0.00 0.01 0.00 94 1020.8
20180223113223 54 303 0.0 0.0 0.00 0.00 0.00 94 1019.5
20180223112209 54 303 0.0 2.0 0.00 0.01 0.00 94 1019.5
20180223112044 53 303 0.0 2.0 0.00 0.01 0.00 94 1020.9
20180223111148 53 303 0.0 2.0 0.00 0.01 0.00 94 1019.6
20180223110551 53 303 0.0 1.0 0.00 0.01 0.00 94 1021.0
20180223110129 53 303 0.0 0.0 0.00 0.01 0.00 94 1019.8
20180223105129 53 303 0.0 0.0 0.00 0.01 0.00 94 1020.0
20180223105002 52 303 0.0 0.0 0.00 0.01 0.00 94 1021.3
20180223104123 53 303 0.0 0.0 0.00 0.01 0.00 94 1020.0
20180223103523 52 303 0.0 0.0 0.00 0.01 0.00 94 1021.3
20180223103121 53 303 0.0 0.0 0.00 0.01 0.00 94 1019.9
20180223102122 52 303 0.0 0.0 0.00 0.01 0.00 94 1019.9
20180223102001 52 303 0.0 0.0 0.00 0.01 0.00 94 1021.2
20180223101052 52 303 0.0 2.0 0.00 0.01 0.00 94 1019.9
20180223100436 52 303 0.0 2.0 0.00 0.01 0.00 94 1021.2
20180223100109 52 302 0.0 1.0 0.00 0.01 0.00 94 1020.0
20180223095047 52 302 0.0 0.0 0.00 0.02 0.00 94 1020.2
20180223095013 51 302 0.0 0.0 0.00 0.02 0.00 94 1021.6
20180223094049 52 302 0.0 0.0 0.00 0.02 0.00 94 1020.5
20180223093452 51 302 0.0 0.0 0.00 0.02 0.00 94 1021.8
20180223093030 51 302 0.0 0.0 0.00 0.02 0.00 94 1020.6
20180223091945 51 302 0.0 0.0 0.00 0.02 0.00 94 1021.9
20180223091031 51 302 0.0 0.0 0.00 0.02 0.00 94 1020.8
20180223090419 50 302 0.0 0.0 0.00 0.02 0.00 94 1022.1
20180223090031 51 302 0.0 0.0 0.00 0.02 0.00 94 1021.0
20180223085022 51 302 0.0 2.0 0.00 0.03 0.00 94 1021.1
20180223084846 50 302 0.0 0.0 0.00 0.06 0.00 94 1022.4
20180223084012 51 302 0.0 2.0 0.00 0.06 0.00 94 1021.1
20180223083403 50 302 0.0 2.0 0.00 0.06 0.00 94 1022.5
20180223082957 50 302 1.0 3.0 0.00 0.06 0.00 94 1021.2
20180223081953 50 302 1.0 3.0 0.00 0.06 0.00 94 1021.5
20180223081812 50 302 0.0 3.0 0.00 0.06 0.00 94 1022.9
20180223080951 50 302 0.0 4.0 0.00 0.06 0.00 94 1021.7
20180223080336 50 302 0.0 5.0 0.00 0.06 0.00 94 1023.1
20180223075951 50 302 2.0 5.0 0.00 0.06 0.00 94 1021.9
20180223074949 51 292 1.0 4.0 0.00 0.06 0.00 94 1021.9
20180223074759 51 292 1.0 4.0 0.00 0.16 0.00 94 1023.2
20180223073946 51 292 2.0 5.0 0.00 0.06 0.00 94 1021.9
20180223073229 51 286 2.0 5.0 0.00 0.16 0.00 94 1023.2
20180223072941 52 332 1.0 5.0 0.00 0.07 0.00 94 1021.9
20180223071941 52 348 1.0 4.0 0.00 0.07 0.00 94 1021.9
20180223071757 52 25 1.0 3.0 0.00 0.16 0.00 94 1023.1
20180223070943 52 28 1.0 4.0 0.00 0.15 0.00 94 1021.7
20180223070156 52 28 1.0 3.0 0.00 0.16 0.00 94 1022.9
20180223065936 53 28 1.0 3.0 0.00 0.16 0.00 94 1021.7
20180223064935 53 28 1.0 3.0 0.00 0.17 0.00 94 1021.5
20180223064637 52 28 0.0 3.0 0.00 0.18 0.00 94 1022.7
20180223063933 53 88 0.0 0.0 0.00 0.17 0.00 94 1021.2
20180223063155 52 88 0.0 0.0 0.00 0.18 0.00 94 1022.4
20180223062912 53 88 0.0 0.0 0.00 0.17 0.00 94 1021.1
20180223061857 52 88 0.0 0.0 0.00 0.18 0.00 94 1021.1
20180223061629 52 88 0.0 0.0 0.00 0.18 0.00 94 1022.4
20180223060838 52 88 0.0 0.0 0.00 0.18 0.00 94 1021.1
20180223060201 52 88 0.0 0.0 0.00 0.18 0.00 94 1022.4
20180223055818 52 88 0.0 0.0 0.00 0.18 0.18 94 1021.1
20180223054807 52 88 0.0 0.0 0.00 0.19 0.18 94 1021.3
20180223054629 52 88 0.0 0.0 0.00 0.19 0.18 94 1022.6
20180223053803 52 88 0.0 0.0 0.00 0.19 0.18 94 1021.3
20180223053057 51 88 0.0 0.0 0.00 0.19 0.18 94 1022.6
20180223052805 52 88 0.0 0.0 0.00 0.19 0.18 94 1021.4
20180223051743 52 88 0.0 0.0 0.00 0.19 0.18 94 1021.4
20180223051614 51 88 0.0 0.0 0.00 0.19 0.18 94 1022.7
20180223050719 52 88 0.0 0.0 0.00 0.19 0.18 94 1021.4
20180223050044 51 88 0.0 0.0 0.00 0.19 0.18 94 1022.7
20180223045658 52 88 0.0 3.0 0.00 0.19 0.18 94 1021.3
20180223044657 51 315 0.0 2.0 0.00 0.20 0.18 94 1021.3
20180223044610 51 315 0.0 1.0 0.00 0.22 0.18 94 1022.6
20180223043654 51 314 0.0 4.0 0.00 0.21 0.18 94 1021.3
20180223043017 51 314 1.0 4.0 0.00 0.22 0.18 94 1022.8
20180223042636 52 315 1.0 3.0 0.00 0.21 0.18 94 1021.5
20180223041614 52 315 1.0 3.0 0.00 0.21 0.18 94 1021.6
20180223041549 51 315 0.0 3.0 0.00 0.22 0.18 94 1022.9
20180223040551 52 315 1.0 4.0 0.00 0.22 0.18 94 1021.5
20180223040038 51 315 1.0 2.0 0.00 0.22 0.18 94 1022.9
20180223035551 52 315 1.0 2.0 0.00 0.22 0.18 94 1021.6
20180223034553 52 315 1.0 2.0 0.00 0.22 0.18 94 1021.5
20180223034529 51 315 0.0 2.0 0.00 0.23 0.18 94 1022.8
20180223033541 52 315 1.0 3.0 0.00 0.23 0.18 94 1021.6
20180223032942 51 315 0.0 2.0 0.00 0.23 0.18 94 1022.8
20180223032537 52 315 0.0 2.0 0.00 0.23 0.18 94 1021.5
20180223031539 52 315 0.0 3.0 0.00 0.23 0.18 94 1021.4
20180223031515 51 315 0.0 3.0 0.00 0.23 0.18 94 1022.7
20180223030537 52 315 1.0 3.0 0.00 0.23 0.18 94 1021.5
20180223025948 51 315 1.0 4.0 0.00 0.23 0.18 94 1022.8
20180223025540 52 315 1.0 4.0 0.00 0.23 0.18 94 1021.3
20180223024522 52 317 1.0 4.0 0.00 0.23 0.18 94 1021.3
20180223024456 52 317 0.0 2.0 0.00 0.23 0.18 94 1022.6
20180223023513 52 317 1.0 4.0 0.00 0.23 0.18 94 1021.1
20180223022854 52 321 0.0 5.0 0.00 0.23 0.18 94 1022.4
20180223022515 52 321 2.0 5.0 0.00 0.23 0.18 94 1020.9
20180223021511 53 340 1.0 4.0 0.00 0.23 0.18 94 1020.9
20180223021419 52 342 1.0 4.0 0.00 0.23 0.18 94 1022.2
20180223020514 53 346 1.0 4.0 0.00 0.23 0.18 94 1020.8
20180223015906 53 311 1.0 6.0 0.00 0.23 0.18 94 1022.0
20180223015505 53 311 2.0 6.0 0.00 0.23 0.18 93 1020.8
20180223014442 54 341 1.0 4.0 0.00 0.23 0.18 94 1020.6
20180223014410 54 341 0.0 4.0 0.00 0.23 0.18 94 1021.9
20180223013440 54 341 1.0 4.0 0.00 0.23 0.18 93 1020.5
20180223012814 54 16 1.0 4.0 0.00 0.23 0.18 93 1021.7
20180223012442 55 16 1.0 4.0 0.00 0.23 0.18 93 1020.4
20180223011442 55 16 1.0 3.0 0.00 0.23 0.18 93 1020.2
20180223011317 55 16 1.0 3.0 0.00 0.23 0.18 93 1021.4
20180223010423 56 17 1.0 3.0 0.00 0.23 0.18 93 1020.0
20180223005848 56 17 1.0 4.0 0.00 0.23 0.18 93 1021.2
20180223005400 56 17 1.0 4.0 0.00 0.23 0.18 93 1019.8
20180223004348 57 21 1.0 3.0 0.00 0.23 0.18 93 1019.7
20180223004327 56 21 0.0 3.0 0.00 0.23 0.18 93 1021.0
20180223003340 57 21 1.0 4.0 0.00 0.23 0.18 93 1019.7
20180223002829 57 21 1.0 4.0 0.00 0.23 0.18 93 1021.0
20180223002343 57 21 0.0 2.0 0.00 0.23 0.18 92 1019.7
20180223001321 58 21 0.0 3.0 0.00 0.23 0.18 93 1019.6
20180223001257 57 21 0.0 3.0 0.00 0.23 0.18 93 1020.9
20180223000322 58 21 0.0 2.0 0.00 0.23 0.18 93 1019.6
20180222235712 58 21 0.0 2.0 0.00 0.23 0.18 92 1020.8
20180222235317 58 21 1.0 3.0 0.00 0.23 0.18 92 1019.5
20180222234315 58 21 1.0 3.0 0.00 0.23 0.18 92 1019.4
20180222234244 58 21 0.0 3.0 0.00 0.23 0.18 92 1020.7
20180222233318 58 21 1.0 3.0 0.00 0.23 0.18 92 1019.3
20180222232743 58 21 0.0 2.0 0.00 0.23 0.18 92 1020.5
20180222232308 59 21 0.0 3.0 0.00 0.23 0.18 92 1019.2
20180222231310 59 21 0.0 3.0 0.00 0.23 0.18 92 1019.2
20180222231240 58 21 0.0 3.0 0.00 0.23 0.18 92 1020.5
20180222230248 59 21 1.0 4.0 0.00 0.23 0.18 92 1019.2
20180222225639 59 21 0.0 4.0 0.00 0.23 0.18 91 1020.5
20180222225235 60 21 1.0 2.0 0.00 0.23 0.18 92 1019.2
20180222224219 60 21 1.0 4.0 0.00 0.23 0.18 92 1019.2
20180222224146 59 21 0.0 4.0 0.00 0.23 0.18 92 1020.5
20180222223220 60 21 2.0 4.0 0.00 0.23 0.18 92 1019.2
20180222222623 59 21 1.0 4.0 0.00 0.23 0.18 92 1020.5
20180222222220 60 25 2.0 4.0 0.00 0.23 0.18 92 1019.1
20180222221204 60 26 2.0 4.0 0.00 0.23 0.18 91 1019.1
20180222221135 60 26 0.0 4.0 0.00 0.23 0.18 91 1020.4
20180222220203 61 49 1.0 3.0 0.00 0.23 0.18 92 1018.9
20180222215641 60 49 1.0 3.0 0.00 0.23 0.18 92 1020.3
20180222215205 61 49 0.0 3.0 0.00 0.23 0.18 92 1019.0
20180222214203 61 49 1.0 3.0 0.00 0.23 0.18 92 1019.0
20180222214114 60 49 0.0 3.0 0.00 0.23 0.18 92 1020.4
20180222213205 60 49 1.0 2.0 0.00 0.23 0.18 92 1019.2
20180222212529 60 49 1.0 3.0 0.00 0.23 0.18 92 1020.5
20180222212144 61 49 1.0 4.0 0.00 0.23 0.18 92 1019.2
20180222211122 61 55 1.0 3.0 0.00 0.23 0.18 92 1019.3
20180222211057 61 55 1.0 3.0 0.00 0.23 0.18 92 1020.6
20180222210101 61 55 1.0 3.0 0.00 0.23 0.18 92 1019.3
20180222205542 61 55 1.0 3.0 0.00 0.23 0.18 92 1020.6
20180222205053 62 55 0.0 2.0 0.00 0.23 0.18 92 1019.3
20180222204054 62 55 0.0 2.0 0.00 0.23 0.18 92 1019.3
20180222204029 61 55 0.0 2.0 0.00 0.23 0.18 93 1020.7
20180222203054 61 55 0.0 2.0 0.00 0.23 0.18 93 1019.5
20180222202538 60 55 0.0 2.0 0.00 0.23 0.18 93 1020.8
20180222202043 60 55 1.0 2.0 0.00 0.23 0.18 93 1019.6
20180222201043 59 55 0.0 3.0 0.00 0.23 0.18 93 1019.7
20180222201016 59 55 0.0 3.0 0.00 0.23 0.18 93 1021.0
20180222200043 58 55 1.0 3.0 0.00 0.23 0.18 93 1019.8
20180222195449 58 57 0.0 3.0 0.00 0.23 0.18 94 1021.2
20180222195044 58 57 1.0 3.0 0.00 0.23 0.18 94 1019.9
20180222194035 58 57 1.0 3.0 0.00 0.23 0.18 94 1020.1
20180222193859 58 94 1.0 3.0 0.00 0.23 0.18 94 1021.4
20180222193027 58 96 0.0 3.0 0.00 0.23 0.18 94 1020.2
20180222192416 58 96 0.0 3.0 0.00 0.23 0.18 94 1021.6
20180222192020 58 96 0.0 3.0 0.00 0.23 0.18 94 1020.4
20180222191000 58 97 1.0 2.0 0.00 0.23 0.18 94 1020.5
20180222190935 58 97 0.0 2.0 0.00 0.23 0.18 94 1021.7
20180222185955 58 97 0.0 2.0 0.00 0.23 0.18 94 1020.7
20180222185407 57 97 0.0 2.0 0.00 0.24 0.18 94 1022.0
20180222184956 57 97 0.0 2.0 0.00 0.23 0.18 94 1020.8
20180222183954 57 97 0.0 5.0 0.00 0.23 0.18 94 1020.8
20180222183903 56 97 0.0 5.0 0.00 0.24 0.18 94 1022.1
20180222182954 57 98 0.0 2.0 0.00 0.23 0.18 94 1021.0
20180222182303 56 98 0.0 2.0 0.00 0.24 0.18 94 1022.4
20180222181954 56 98 0.0 2.0 0.00 0.24 0.18 94 1021.2
20180222180952 56 99 0.0 2.0 0.00 0.24 0.18 94 1021.2
20180222180751 55 99 0.0 2.0 0.00 0.24 0.18 94 1022.5